TimeCDT,TemperatureF,Dew PointF,Humidity,Sea Level PressureIn,VisibilityMPH,Wind Direction,Wind SpeedMPH,Gust SpeedMPH,PrecipitationIn,Events,Conditions,WindDirDegrees,DateUTC
12:54 AM,55.0,51.1,86,29.99,10.0,ENE,4.6,-,N/A,,Clear,60,2013-09-24 05:54:00
1:54 AM,55.0,51.1,86,29.99,10.0,NE,3.5,-,N/A,,Clear,50,2013-09-24 06:54:00
2:54 AM,55.0,51.1,86,29.99,10.0,ENE,4.6,-,N/A,,Clear,60,2013-09-24 07:54:00
3:54 AM,54.0,51.1,90,29.99,10.0,ENE,4.6,-,N/A,,Clear,60,2013-09-24 08:54:00
4:54 AM,54.0,51.1,90,29.99,10.0,ENE,4.6,-,N/A,,Scattered Clouds,60,2013-09-24 09:54:00
5:54 AM,54.0,51.1,90,30.00,10.0,ENE,3.5,-,N/A,,Scattered Clouds,70,2013-09-24 10:54:00
6:54 AM,55.9,52.0,87,30.01,10.0,NE,3.5,-,N/A,,Mostly Cloudy,50,2013-09-24 11:54:00
7:54 AM,57.9,54.0,87,30.00,10.0,ENE,4.6,-,N/A,,Mostly Cloudy,60,2013-09-24 12:54:00
8:54 AM,62.1,55.9,80,29.99,10.0,Variable,3.5,-,N/A,,Mostly Cloudy,0,2013-09-24 13:54:00
9:54 AM,68.0,60.1,76,29.98,10.0,Variable,3.5,-,N/A,,Clear,0,2013-09-24 14:54:00
10:54 AM,73.0,61.0,66,29.95,10.0,SE,8.1,-,N/A,,Clear,130,2013-09-24 15:54:00
11:54 AM,77.0,63.0,62,29.94,10.0,Variable,3.5,-,N/A,,Clear,0,2013-09-24 16:54:00
12:54 PM,79.0,57.9,48,29.92,10.0,Variable,4.6,-,N/A,,Mostly Cloudy,0,2013-09-24 17:54:00
1:54 PM,79.0,57.9,48,29.89,10.0,SE,9.2,-,N/A,,Scattered Clouds,140,2013-09-24 18:54:00
2:54 PM,82.0,57.9,44,29.88,10.0,SSE,10.4,-,N/A,,Scattered Clouds,160,2013-09-24 19:54:00
3:54 PM,80.1,59.0,48,29.86,10.0,SSE,6.9,-,N/A,,Partly Cloudy,160,2013-09-24 20:54:00
4:54 PM,79.0,60.1,52,29.85,10.0,SSE,4.6,-,N/A,,Clear,160,2013-09-24 21:54:00
5:54 PM,78.1,61.0,56,29.85,10.0,SE,4.6,-,N/A,,Overcast,130,2013-09-24 22:54:00
6:54 PM,75.9,62.1,62,29.85,10.0,Calm,Calm,-,N/A,,Overcast,0,2013-09-24 23:54:00
7:54 PM,73.0,63.0,71,29.85,10.0,ENE,4.6,-,N/A,,Overcast,70,2013-09-25 00:54:00
8:54 PM,72.0,62.1,71,29.86,10.0,Calm,Calm,-,N/A,,Clear,0,2013-09-25 01:54:00
9:54 PM,71.1,62.1,73,29.86,10.0,East,3.5,-,N/A,,Mostly Cloudy,100,2013-09-25 02:54:00
10:54 PM,69.1,62.1,78,29.85,10.0,Calm,Calm,-,N/A,,Overcast,0,2013-09-25 03:54:00
11:54 PM,68.0,62.1,81,29.84,10.0,ENE,4.6,-,N/A,,Mostly Cloudy,60,2013-09-25 04:54:00